C/2016 R2 ( PanSTARRS )

Japanese version
Home page
Updated on July 17, 2018

---------------------------------------------------------------------

* Profile

Discovery Date September 7, 2016
Magnitude 19.1 mag
Discoverer Pan-STARRS 1 telescope (Haleakala)

* Pictures

* Orbital Elements

Epoch 2018 May 2.0 TT = JDT 2458240.5
T 2018 May  9.58570 TT                                  MPCW
q   2.6023394            (2000.0)            P               Q
z  +0.0014069      Peri.   33.19316     -0.14727669     -0.52443208
 +/-0.0000003      Node    80.56888     +0.61561436     -0.71222373
e   0.9963387      Incl.   58.22352     +0.77416312     +0.46659228
From 2492 observations 2016 Aug. 30-2018 Mar. 28, mean residual 0".4.

* Finding Charts

* Magnitudes Graph

        m1 = 3.5 + 5 log d + 12.0 log r

---------------------------------------------------------------------

The orbital elements are published on M.P.E.C. 2018-F152.
The charts are made with StellaNavigator Ver.10 (AstroArts).
The magnitudes graphs are made with Comet for Windows.

---------------------------------------------------------------------

Copyright(C) Seiichi Yoshida (comet@aerith.net). All rights reserved.